Location: Newark
(15.4608°S, 41.1635°W)
Time: 23:29:45
(UTC+00:00)

N. Korean satellite - Pass Details

Date: 25 June 2021
Orbit: 451 x 498 km, 97.2° (Epoch: 30 July)

Event Time Altitude Azimuth Distance (km) Brightness Sun altitude
Rises 07:09:03 0° 27° (NNE) 2,572 10.9 -28.3°
Reaches altitude 10° 07:11:14 10° 36° (NE) 1,695 10.0 -27.8°
Enters shadow 07:14:29 35° 99° (E) 819 8.1 -27.0°
